Date Time,Air Temp,Sky Temp,Clarity,Light Level,Rain Sensor,Readings
2011-03-17 00:00:04,13.4,1.4,12.0,0.2,2.3,111
2011-03-17 00:05:04,13.3,1.7,11.6,0.1,2.3,111
2011-03-17 00:10:04,13.3,1.3,12.0,0.2,2.3,111
2011-03-17 00:15:04,13.2,0.8,12.4,0.1,2.3,111
2011-03-17 00:20:04,13.1,1.0,12.1,0.1,2.3,111
2011-03-17 00:25:04,13.0,0.9,12.1,0.2,2.3,111
2011-03-17 00:30:04,13.0,1.2,11.8,0.1,2.3,111
2011-03-17 00:35:04,12.9,1.4,11.5,0.1,2.4,111
2011-03-17 00:40:04,12.9,1.2,11.7,0.1,2.4,111
2011-03-17 00:45:04,12.9,1.5,11.5,0.1,2.4,111
2011-03-17 00:50:04,12.9,0.9,12.0,0.1,2.4,111
2011-03-17 00:55:04,12.8,0.6,12.2,0.1,2.5,111
2011-03-17 01:00:04,12.7,0.9,11.8,0.1,2.4,111
2011-03-17 01:05:04,12.7,0.8,11.8,0.1,2.4,111
2011-03-17 01:10:04,12.6,1.5,11.1,0.1,2.4,111
2011-03-17 01:15:04,12.8,1.9,10.8,0.1,2.4,111
2011-03-17 01:20:04,12.9,1.4,11.5,0.1,2.4,111
2011-03-17 01:25:04,12.8,1.0,11.7,0.1,2.4,111
2011-03-17 01:30:04,12.8,1.4,11.4,0.1,2.4,111
2011-03-17 01:35:04,12.7,0.7,12.0,0.1,2.5,111
2011-03-17 01:40:04,12.6,0.6,11.9,0.1,2.4,111
2011-03-17 01:45:04,12.5,0.8,11.7,0.0,2.3,112
2011-03-17 01:50:04,12.5,0.7,11.8,0.0,2.3,111
2011-03-17 01:55:04,12.5,0.9,11.6,0.1,2.4,111
2011-03-17 02:00:04,12.5,0.9,11.6,0.0,2.4,111
2011-03-17 02:05:04,12.5,0.7,11.8,0.0,2.3,111
2011-03-17 02:10:04,12.8,0.6,12.2,0.0,2.4,111
2011-03-17 02:15:04,12.4,0.1,12.3,0.1,2.4,111
2011-03-17 02:20:04,12.3,0.3,12.0,0.0,2.3,112
2011-03-17 02:25:04,12.2,0.6,11.6,0.0,2.2,111
2011-03-17 02:30:04,12.2,0.7,11.5,0.0,2.2,111
2011-03-17 02:35:04,12.1,0.8,11.4,0.0,2.1,111
2011-03-17 02:40:04,12.1,0.7,11.4,0.0,1.9,111
2011-03-17 02:45:04,12.2,1.0,11.1,0.0,1.9,111
2011-03-17 02:50:04,12.3,0.5,11.8,0.0,2.1,112
2011-03-17 02:55:04,12.4,0.5,11.9,0.0,2.2,111
2011-03-17 03:00:04,12.4,0.3,12.1,0.0,2.3,111
2011-03-17 03:05:04,12.3,0.2,12.0,0.0,2.2,111
2011-03-17 03:10:04,12.1,0.5,11.6,0.0,1.9,111
2011-03-17 03:15:04,12.0,0.9,11.1,0.0,1.8,112
2011-03-17 03:20:04,12.1,0.7,11.4,0.0,1.9,111
2011-03-17 03:25:04,12.1,0.0,12.1,0.0,2.2,112
2011-03-17 03:30:04,12.0,0.2,11.8,0.0,1.9,112
2011-03-17 03:35:04,11.9,0.2,11.7,0.0,1.8,111
2011-03-17 03:40:04,11.9,0.2,11.7,0.0,1.8,111
2011-03-17 03:45:04,12.0,-0.1,12.1,0.0,1.9,112
2011-03-17 03:50:04,12.0,-0.3,12.3,0.0,2.1,112
2011-03-17 03:55:04,11.9,-0.3,12.2,0.0,2.1,112
2011-03-17 04:00:04,11.8,-0.2,12.0,0.0,2.0,112
2011-03-17 04:05:04,11.8,0.2,11.6,0.0,1.9,112
2011-03-17 04:10:04,11.8,0.5,11.3,0.0,1.7,111
2011-03-17 04:15:04,11.8,0.5,11.3,0.0,1.6,111
2011-03-17 04:20:04,11.9,-1.8,13.7,0.0,1.7,111
2011-03-17 04:25:04,11.8,-0.6,12.5,0.0,1.7,111
2011-03-17 04:30:04,11.9,-0.2,12.2,0.0,1.7,111
2011-03-17 04:35:04,12.0,-0.3,12.3,0.0,1.8,112
2011-03-17 04:40:04,11.9,-0.7,12.6,0.0,1.8,112
2011-03-17 04:45:04,11.8,-0.2,12.1,0.0,1.8,111
2011-03-17 04:50:04,11.8,-0.5,12.3,0.0,1.8,112
2011-03-17 04:55:04,11.8,-1.3,13.1,0.0,1.7,112
2011-03-17 05:00:04,11.8,-1.1,13.0,0.0,1.7,112
2011-03-17 05:05:04,11.8,-0.5,12.3,0.0,1.8,112
2011-03-17 05:10:04,11.7,-0.4,12.1,0.0,1.7,111
2011-03-17 05:15:04,11.6,-0.0,11.7,0.0,1.7,112
2011-03-17 05:20:04,11.8,0.0,11.7,0.0,1.7,112
2011-03-17 05:25:04,11.8,-0.0,11.9,0.1,1.7,111
2011-03-17 05:30:04,11.8,-0.3,12.1,0.4,1.7,112
2011-03-17 05:35:04,11.8,-0.2,12.0,0.7,1.7,112
2011-03-17 05:40:04,11.8,0.2,11.6,1.6,1.7,112
2011-03-17 05:45:04,11.7,0.1,11.7,3.3,1.9,111
2011-03-17 05:50:04,11.7,-0.3,12.0,6.3,1.7,112
2011-03-17 05:55:04,11.6,-0.2,11.8,10.7,1.7,112
2011-03-17 06:00:04,11.7,-0.3,12.0,15.6,1.7,112
2011-03-17 06:05:04,11.7,-0.3,11.9,20.3,1.7,112
2011-03-17 06:10:04,11.8,-0.6,12.4,24.3,1.6,112
2011-03-17 06:15:04,11.9,-1.0,12.8,26.8,1.7,111
2011-03-17 06:20:04,11.9,-0.5,12.4,28.5,1.8,112
2011-03-17 06:25:04,11.8,-0.7,12.5,29.5,1.8,112
2011-03-17 06:30:04,11.8,-0.8,12.6,30.1,1.9,111
2011-03-17 06:35:04,11.8,-0.6,12.4,30.5,1.8,113
2011-03-17 06:40:04,11.8,-0.2,12.0,30.6,1.8,112
2011-03-17 06:45:04,11.9,0.1,11.8,30.9,1.7,111
2011-03-17 06:50:04,11.9,0.1,11.7,31.3,1.8,112
2011-03-17 06:55:04,11.8,-0.1,11.8,31.5,2.0,112
2011-03-17 07:00:04,11.7,-0.1,11.9,31.6,1.9,112
2011-03-17 07:05:04,11.7,0.1,11.6,31.7,1.8,111
2011-03-17 07:10:04,11.8,-0.2,12.0,31.8,1.7,112
2011-03-17 07:15:04,11.8,-0.1,11.9,32.0,1.7,112
2011-03-17 07:20:04,11.8,-0.0,11.8,32.0,1.9,112
2011-03-17 07:25:04,11.7,0.2,11.5,32.0,1.7,111
2011-03-17 07:30:04,11.9,-0.2,12.1,32.2,1.7,112
2011-03-17 07:35:04,12.0,0.1,11.8,32.2,1.9,112
2011-03-17 07:40:04,12.0,0.1,11.9,32.1,1.7,111
2011-03-17 07:45:04,12.0,-0.2,12.3,32.2,1.7,112
2011-03-17 07:50:04,12.0,-0.4,12.4,32.3,1.7,112
2011-03-17 07:55:04,11.9,-0.3,12.2,32.3,1.8,111
2011-03-17 08:00:04,11.9,-0.3,12.2,32.3,1.7,112
2011-03-17 08:05:04,11.9,-0.2,12.1,32.3,1.7,112
2011-03-17 08:10:05,12.0,0.3,11.6,32.3,1.8,111
2011-03-17 08:15:05,12.1,-0.1,12.2,32.3,1.9,112
2011-03-17 08:20:05,12.1,0.1,12.0,32.3,1.8,112
2011-03-17 08:25:05,12.1,-0.0,12.1,32.3,1.7,112
2011-03-17 08:30:05,12.1,0.1,12.0,32.3,1.7,111
2011-03-17 08:35:05,12.2,0.2,12.1,32.4,1.8,112
2011-03-17 08:40:05,12.3,-1.0,13.3,32.3,1.8,112
2011-03-17 08:45:05,12.4,-0.2,12.5,32.4,1.9,112
2011-03-17 08:50:05,12.4,-0.5,12.9,32.4,2.0,111
2011-03-17 08:55:05,12.4,0.0,12.4,32.4,2.0,112
2011-03-17 09:00:05,12.5,0.3,12.2,32.3,2.2,111
2011-03-17 09:05:05,12.7,0.4,12.3,32.3,2.2,111
2011-03-17 09:10:05,12.8,-0.9,13.7,32.4,2.2,111
2011-03-17 09:15:05,12.8,0.1,12.7,32.4,2.3,112
2011-03-17 09:20:05,12.8,0.5,12.3,32.5,2.4,111
2011-03-17 09:25:05,13.1,0.6,12.5,32.5,2.3,111
2011-03-17 09:30:05,13.4,0.4,13.1,32.5,2.4,111
2011-03-17 09:35:05,13.7,0.3,13.4,32.5,2.4,112
2011-03-17 09:40:05,13.8,1.5,12.3,32.5,2.4,111
2011-03-17 09:45:05,13.9,0.3,13.6,32.5,2.3,111
2011-03-17 09:50:05,14.0,2.0,12.0,32.5,2.3,111
2011-03-17 09:55:05,14.2,2.3,11.9,32.5,2.3,111
2011-03-17 10:00:05,14.4,2.2,12.2,32.5,2.3,112
2011-03-17 10:05:05,14.4,2.1,12.4,32.5,2.3,111
2011-03-17 10:10:05,14.4,2.2,12.2,32.5,2.3,111
2011-03-17 10:15:05,14.6,2.6,12.0,32.5,2.3,111
2011-03-17 10:20:05,14.8,3.0,11.8,32.5,2.3,111
2011-03-17 10:25:05,15.1,2.8,12.3,32.5,2.3,112
2011-03-17 10:30:05,15.3,2.9,12.4,32.5,2.3,111
2011-03-17 10:35:05,15.4,2.8,12.7,32.5,2.3,111
2011-03-17 10:40:05,15.5,3.0,12.5,32.5,2.3,112
2011-03-17 10:45:05,15.6,3.2,12.5,32.5,2.3,111
2011-03-17 10:50:05,15.8,3.3,12.5,32.5,2.3,111
2011-03-17 10:55:05,15.9,3.4,12.5,32.5,2.3,112
2011-03-17 11:00:05,15.9,2.9,13.0,32.5,2.3,111
2011-03-17 11:05:05,16.1,2.8,13.3,32.5,2.3,112
2011-03-17 11:10:05,16.2,2.0,14.2,32.5,2.3,111
2011-03-17 11:15:05,16.3,3.4,12.9,32.5,2.3,112
2011-03-17 11:20:05,16.6,2.5,14.1,32.5,2.4,111
2011-03-17 11:25:05,16.6,1.5,15.0,32.5,2.4,112
2011-03-17 11:30:05,16.3,2.5,13.8,32.5,2.3,111
2011-03-17 11:35:05,16.4,2.4,14.0,32.5,2.3,111
2011-03-17 11:40:05,16.5,2.8,13.7,32.5,2.4,111
2011-03-17 11:45:05,16.5,2.1,14.4,32.5,2.4,111
2011-03-17 11:50:05,16.4,2.3,14.1,32.5,2.4,112
2011-03-17 11:55:05,16.3,2.1,14.2,32.5,2.3,111
2011-03-17 12:00:05,16.2,1.9,14.4,32.5,2.3,110
2011-03-17 12:05:05,16.3,2.8,13.5,32.5,2.3,112
2011-03-17 12:10:05,16.4,1.6,14.8,32.5,2.4,111
2011-03-17 12:15:05,16.3,2.1,14.2,32.5,2.3,111
2011-03-17 12:20:05,16.3,1.8,14.5,32.5,2.3,112
2011-03-17 12:25:05,16.4,2.1,14.3,32.5,2.4,111
2011-03-17 12:30:05,16.3,1.6,14.8,32.5,2.4,110
2011-03-17 12:35:05,16.2,1.6,14.6,32.5,2.3,111
2011-03-17 12:40:05,16.2,1.4,14.8,32.5,2.3,111
2011-03-17 12:45:05,16.1,1.6,14.5,32.5,2.3,112
2011-03-17 12:50:05,16.1,2.5,13.7,32.5,2.3,111
2011-03-17 12:55:05,16.3,2.1,14.2,32.5,2.3,111
2011-03-17 13:00:05,16.2,1.4,14.8,32.5,2.3,111
2011-03-17 13:05:05,16.1,1.7,14.4,32.5,2.3,111
2011-03-17 13:10:05,16.2,2.0,14.2,32.5,2.3,111
2011-03-17 13:15:05,16.4,2.1,14.3,32.5,2.3,111
2011-03-17 13:20:05,16.4,2.1,14.3,32.5,2.3,111
2011-03-17 13:25:05,16.4,1.6,14.8,32.4,2.3,111
2011-03-17 13:30:05,16.4,2.3,14.1,32.5,2.3,112
2011-03-17 13:35:05,16.4,2.4,13.9,32.5,2.4,111
2011-03-17 13:40:05,16.6,2.7,13.9,32.5,2.3,111
2011-03-17 13:45:05,16.8,2.4,14.4,32.5,2.0,111
2011-03-17 13:50:05,16.9,2.7,14.2,32.5,2.2,112
2011-03-17 13:55:05,16.9,2.7,14.2,32.5,2.3,111
2011-03-17 14:00:05,17.2,2.4,14.8,32.6,2.3,111
2011-03-17 14:05:05,20.7,-4.5,25.3,32.6,2.3,111
2011-03-17 14:10:05,25.4,-6.4,31.8,32.6,2.3,112
2011-03-17 14:15:05,26.6,-2.1,28.8,32.6,2.3,112
2011-03-17 14:20:05,26.5,-7.1,33.6,32.6,2.3,111
2011-03-17 14:25:05,26.3,-1.6,27.9,32.6,2.3,112
2011-03-17 14:30:05,27.3,-1.9,29.2,32.6,2.3,112
2011-03-17 14:35:05,27.4,-1.9,29.3,32.6,2.3,111
2011-03-17 14:40:05,26.6,2.7,23.9,32.5,2.3,111
2011-03-17 14:45:05,25.6,1.4,24.2,32.5,2.3,111
2011-03-17 14:50:05,25.0,3.1,22.0,32.5,2.3,112
2011-03-17 14:55:05,24.8,3.4,21.4,32.5,2.3,111
2011-03-17 15:00:05,24.5,2.9,21.6,32.5,2.3,111
2011-03-17 15:05:05,24.5,1.0,23.5,32.6,2.3,111
2011-03-17 15:10:05,25.1,-1.1,26.1,32.6,2.3,111
2011-03-17 15:15:05,26.1,-9.9,36.0,32.6,2.3,112
2011-03-17 15:20:05,26.7,-11.5,38.2,32.6,2.3,112
2011-03-17 15:25:05,26.7,-10.6,37.3,32.6,2.3,111
2011-03-17 15:30:05,26.6,-10.4,37.0,32.6,2.3,112
2011-03-17 15:35:05,26.6,-10.6,37.2,32.6,2.3,111
2011-03-17 15:40:05,26.5,-9.4,36.0,32.6,2.3,112
2011-03-17 15:45:05,26.3,-7.7,33.9,32.6,2.3,112
2011-03-17 15:50:05,25.9,-5.8,31.8,32.6,2.3,112
2011-03-17 15:55:05,25.6,-6.2,31.8,32.6,2.3,111
2011-03-17 16:00:05,25.5,-9.8,35.3,32.6,2.3,112
2011-03-17 16:05:05,25.1,-10.7,35.9,32.6,2.3,112
2011-03-17 16:10:05,25.0,-9.3,34.2,32.6,2.3,112
2011-03-17 16:15:05,25.0,-6.6,31.6,32.6,2.3,111
2011-03-17 16:20:05,25.1,-3.5,28.6,32.6,2.3,112
2011-03-17 16:25:05,25.2,-6.5,31.7,32.6,2.3,112
2011-03-17 16:30:05,25.1,-9.3,34.4,32.6,2.3,111
2011-03-17 16:35:05,24.9,-10.4,35.3,32.5,2.3,112
2011-03-17 16:40:05,24.5,-10.8,35.3,32.5,2.3,112
2011-03-17 16:45:05,24.2,-10.1,34.3,32.5,2.2,111
2011-03-17 16:50:05,24.1,-9.9,34.0,32.5,2.3,112
2011-03-17 16:55:05,24.2,-9.9,34.1,32.5,2.3,112
2011-03-17 17:00:05,24.1,-10.0,34.1,32.5,2.3,112
2011-03-17 17:05:05,24.0,-10.5,34.5,32.5,2.3,112
2011-03-17 17:10:05,24.0,-10.8,34.8,32.5,2.3,112
2011-03-17 17:15:05,23.9,-11.8,35.8,32.5,2.3,111
2011-03-17 17:20:05,23.6,-12.1,35.7,32.4,2.3,111
2011-03-17 17:25:05,23.3,-11.9,35.2,32.4,2.3,112
2011-03-17 17:30:05,23.1,-12.7,35.8,32.4,2.3,111
2011-03-17 17:35:05,22.7,-12.7,35.4,32.4,2.3,112
2011-03-17 17:40:05,22.4,-12.5,34.9,32.3,2.3,111
2011-03-17 17:45:05,22.3,-12.6,34.9,32.3,2.3,111
2011-03-17 17:50:05,22.1,-13.0,35.1,32.1,2.3,112
2011-03-17 17:55:05,21.8,-13.1,35.0,32.0,2.3,111
2011-03-17 18:00:05,21.7,-12.7,34.4,31.8,2.5,111
2011-03-17 18:05:05,21.5,-12.6,34.1,31.6,2.5,112
2011-03-17 18:10:05,21.4,-12.5,33.9,31.2,2.3,111
2011-03-17 18:15:05,21.1,-13.1,34.2,30.6,2.3,111
2011-03-17 18:20:05,21.0,-14.3,35.2,29.7,2.3,112
2011-03-17 18:25:05,20.9,-13.8,34.7,28.1,2.1,111
2011-03-17 18:30:05,20.8,-13.3,34.2,25.1,2.0,112
2011-03-17 18:35:05,20.8,-12.7,33.6,20.2,2.0,112
2011-03-17 18:40:05,20.8,-12.4,33.2,14.4,2.0,111
2011-03-17 18:45:05,20.7,-12.2,32.8,9.3,1.9,111
2011-03-17 18:50:05,20.6,-12.0,32.6,5.3,1.9,111
2011-03-17 18:55:05,20.6,-12.0,32.6,2.9,1.9,111
2011-03-17 19:00:05,20.8,-11.7,32.5,1.6,1.9,111
2011-03-17 19:05:05,21.0,-11.9,32.9,0.9,1.9,111
2011-03-17 19:10:05,21.0,-12.3,33.3,0.5,1.9,111
2011-03-17 19:15:05,21.1,-11.5,32.6,0.4,2.2,112
2011-03-17 19:20:05,21.0,-11.0,32.0,0.3,2.0,112
2011-03-17 19:25:05,21.1,-11.4,32.5,0.3,1.9,111
2011-03-17 19:30:05,21.1,-12.3,33.4,0.3,1.9,112
2011-03-17 19:35:05,21.1,-12.3,33.4,0.3,2.3,111
2011-03-17 19:40:05,20.9,-12.0,32.9,0.3,2.3,111
2011-03-17 19:45:05,20.8,-11.6,32.3,0.3,2.3,112
2011-03-17 19:50:05,20.7,-12.0,32.7,0.3,2.3,111
2011-03-17 19:55:05,20.6,-11.9,32.6,0.4,2.3,111
2011-03-17 20:00:05,20.6,-12.0,32.7,0.4,2.3,111
2011-03-17 20:05:05,20.5,-12.2,32.7,0.4,2.3,111
2011-03-17 20:10:05,20.6,-12.1,32.7,0.4,2.3,111
2011-03-17 20:15:05,20.5,-12.5,33.0,0.4,2.3,111
2011-03-17 20:20:05,20.5,-12.2,32.7,0.5,2.3,112
2011-03-17 20:25:05,20.2,-12.3,32.5,0.5,2.3,111
2011-03-17 20:30:05,20.5,-11.8,32.3,0.5,2.3,112
2011-03-17 20:35:05,20.4,-12.4,32.8,0.5,2.3,111
2011-03-17 20:40:05,20.4,-12.6,32.9,0.6,2.3,111
2011-03-17 20:45:05,20.4,-12.4,32.7,0.6,2.3,111
2011-03-17 20:50:05,20.6,-11.7,32.3,0.6,2.3,111
2011-03-17 20:55:05,20.7,-12.1,32.8,0.6,2.3,111
2011-03-17 21:00:05,20.8,-12.0,32.8,0.6,2.3,111
2011-03-17 21:05:05,20.7,-10.5,31.1,0.7,2.3,112
2011-03-17 21:10:05,20.6,-6.4,27.1,0.7,2.3,112
2011-03-17 21:15:05,20.8,-3.2,24.0,0.7,2.3,112
2011-03-17 21:20:05,21.0,-3.8,24.7,0.6,2.3,111
2011-03-17 21:25:05,21.1,-4.1,25.2,0.7,2.3,112
2011-03-17 21:30:05,21.2,-4.6,25.8,0.7,2.3,112
2011-03-17 21:35:05,21.2,-2.8,24.0,0.7,2.3,112
2011-03-17 21:40:05,21.4,-2.6,23.9,0.6,2.3,111
2011-03-17 21:45:05,21.4,-4.3,25.7,0.7,2.3,112
2011-03-17 21:50:05,21.3,-1.2,22.5,0.6,2.3,112
2011-03-17 21:55:05,21.1,-0.2,21.4,0.5,2.3,112
2011-03-17 22:00:05,21.0,-0.2,21.2,0.5,2.3,112
2011-03-17 22:05:05,20.9,-0.1,21.0,0.5,2.3,111
2011-03-17 22:10:05,20.3,0.6,19.8,0.5,2.3,111
2011-03-17 22:15:05,17.5,2.0,15.5,0.5,2.4,112
2011-03-17 22:20:05,16.5,2.0,14.6,0.5,2.3,111
2011-03-17 22:25:05,16.1,1.3,14.8,0.5,2.1,111
2011-03-17 22:30:05,15.8,0.8,15.0,0.5,2.2,111
2011-03-17 22:35:05,15.7,0.2,15.6,0.6,2.4,112
2011-03-17 22:40:05,15.5,0.8,14.7,0.5,2.3,110
2011-03-17 22:45:05,15.3,1.3,14.0,0.4,2.3,111
2011-03-17 22:50:05,15.2,1.4,13.8,0.5,2.3,111
2011-03-17 22:55:05,15.2,0.8,14.3,0.5,2.3,111
2011-03-17 23:00:05,15.1,0.8,14.3,0.5,2.2,111
2011-03-17 23:05:05,15.1,0.4,14.7,0.5,2.2,111
2011-03-17 23:10:06,15.1,-2.1,17.2,0.5,2.2,112
2011-03-17 23:15:06,16.3,-5.5,21.9,0.8,2.3,112
2011-03-17 23:20:06,18.9,-6.6,25.5,0.5,3.0,111
2011-03-17 23:25:06,19.5,-8.3,27.9,0.7,2.5,112
2011-03-17 23:30:06,19.8,-13.6,33.4,0.9,2.6,111
2011-03-17 23:35:06,19.9,-14.4,34.3,0.9,2.6,111
2011-03-17 23:40:06,19.8,-13.8,33.6,0.9,2.5,112
2011-03-17 23:45:06,19.7,-13.4,33.1,1.0,2.5,111
2011-03-17 23:50:06,19.6,-12.2,31.8,0.7,2.5,112
2011-03-17 23:55:06,19.6,-9.6,29.2,0.6,2.5,112
